sat.trackr.live / text

‹ back to catalog

STARLINK-5312

NORAD 55311 · 2023-010AU

PAYLOAD ACTIVE UNKNOWN

§ Identity

Operator
Country
US
Launch date
2023-01-19
Launch site
AFWTR
Launch vehicle
Mass (kg)
RCS (m²)

Purposes: comms

External: N2YO · Heavens-Above · Gunter

§ Orbital elements

Epoch: 2026-05-25T03:46:08.072832Z

Period
96.11 min
Inclination
69.9983°
Eccentricity
0.0003772
Mean motion
14.98337673 rev/d
Perigee alt
569.4 km
Apogee alt
574.7 km
Semi-major
6,950.2 km
B*
3.6245e-5
RAAN
171.7618°
Arg perigee
269.0333°
Mean anomaly
91.0393°
Rev number
18,609

§ Raw data

STARLINK-53121 55311U 23010AU  26145.15703788  .00000339  00000+0  36245-4 0  99962 55311  69.9983 171.7618 0003772 269.0333  91.0393 14.98337673186097

JSON: /api/v1/satellites/55311 · /tle

For live sub-satellite position, see the globe view (requires WebGL).

§ Visibility from observer

Set your observer location to see the next 7 days of passes ≥ 10°. The values pass through the URL so the page stays shareable.

No JS? Fill the form by hand. The geolocation button needs JavaScript.